Weather History for Kendall, FL

Change the Weather History Date:

Saturday, December 1, 2012

  Actual Average Record
Temperature  
Mean Temperature 74 °F -  
Max Temperature 79 °F 78 °F 84 °F (2010)
Min Temperature 69 °F 61 °F 48 °F (2005)
Cooling Degree Days 9    
Growing Degree Days 24 (Base 50)    
Moisture  
Dew Point 63 °F    
Average Humidity 73    
Maximum Humidity 90    
Minimum Humidity 50    
Precipitation  
Precipitation 0.02 in - - ()
Sea Level Pressure  
Sea Level Pressure 30.15 in    
Wind  
Wind Speed 9 mph (ENE)    
Max Wind Speed 17 mph    
Max Gust Speed 25 mph    
Visibility 10 miles    
Events Rain    
Averages and records for this station are not official NWS values.
T = Trace of Precipitation, MM = Missing Value Source: NWS Daily Summary

Daily Weather History Graph

Daily Weather History Graph

Search for Another Location

Airport:

Trip Planner

Search our weather history database for the weather conditions in past years. The results will help you decide how hot, cold, wet, or windy it might be!

Date:

Astronomy

Dec. 01, 2012 Rise Set
Actual Time 6:51 AM EST 5:30 PM EST
Civil Twilight 6:26 AM EST 5:55 PM EST
Nautical Twilight 5:58 AM EST 6:23 PM EST
Astronomical Twilight 5:30 AM EST 6:51 PM EST
Moon 8:14 PM EST (12/1) 9:06 AM EST (12/1)
Length of Visible Light 11h 28m
Length of Day
10h 39m
Waning Gibbous, 92% of the Moon is Illuminated
Dec 1
Waning Gibbous
Dec 6
Last Quarter
Dec 13
New
Dec 20
First Quarter
Dec 28
Full

Hourly Weather History & Observations

Time (EST) Temp. Dew Point Humidity Pressure Visibility Wind Dir Wind Speed Gust Speed Precip Events Conditions
12:53 AM 70.0 °F 66.0 °F 87% 30.14 in 10.0 mi NNE 4.6 mph - 0.00 in   Overcast
1:53 AM 69.1 °F 64.9 °F 87% 30.13 in 10.0 mi NE 8.1 mph - N/A   Mostly Cloudy
2:53 AM 70.0 °F 64.0 °F 81% 30.12 in 10.0 mi NE 10.4 mph - N/A   Scattered Clouds
3:53 AM 70.0 °F 64.0 °F 81% 30.12 in 10.0 mi NE 6.9 mph - N/A   Overcast
4:53 AM 70.0 °F 63.0 °F 78% 30.12 in 10.0 mi NE 6.9 mph - N/A   Overcast
5:53 AM 70.0 °F 64.0 °F 81% 30.13 in 10.0 mi NNE 8.1 mph - N/A   Overcast
6:53 AM 70.0 °F 64.9 °F 84% 30.14 in 10.0 mi NE 6.9 mph - N/A   Overcast
7:53 AM 70.0 °F 66.9 °F 90% 30.16 in 8.0 mi ENE 10.4 mph - 0.01 in Rain Light Rain
8:53 AM 72.0 °F 66.0 °F 81% 30.17 in 10.0 mi East 5.8 mph - 0.00 in   Overcast
9:53 AM 75.0 °F 66.0 °F 73% 30.19 in 10.0 mi East 5.8 mph - N/A   Mostly Cloudy
10:53 AM 73.4 °F 66.2 °F 78% 30.18 in 10.0 mi East 10.4 mph - N/A Rain Light Rain
11:53 AM 75.0 °F 64.0 °F 69% 30.18 in 10.0 mi East 17.3 mph 25.3 mph 0.00 in   Overcast
12:53 PM 77.0 °F 60.1 °F 56% 30.16 in 10.0 mi East 13.8 mph - 0.00 in   Partly Cloudy
1:53 PM 78.8 °F 60.8 °F 54% 30.14 in 10.0 mi East 16.1 mph 24.2 mph N/A   Partly Cloudy
2:53 PM 79.0 °F 59.0 °F 50% 30.13 in 10.0 mi ENE 15.0 mph - N/A   Partly Cloudy
3:53 PM 77.0 °F 59.0 °F 54% 30.14 in 10.0 mi ENE 15.0 mph - N/A   Clear
4:53 PM 75.2 °F 57.2 °F 53% 30.14 in 10.0 mi ENE 15.0 mph - N/A   Clear
5:53 PM 73.0 °F 60.1 °F 64% 30.14 in 10.0 mi ENE 11.5 mph - N/A   Clear
6:53 PM 71.1 °F 60.1 °F 68% 30.15 in 10.0 mi NE 6.9 mph - N/A   Clear
7:53 PM 70.0 °F 60.1 °F 71% 30.16 in 10.0 mi NE 5.8 mph - N/A   Clear
8:53 PM 69.1 °F 60.1 °F 73% 30.17 in 10.0 mi NE 3.5 mph - N/A   Scattered Clouds
9:53 PM 70.0 °F 64.9 °F 84% 30.17 in 10.0 mi East 15.0 mph 19.6 mph 0.00 in Rain Light Rain
10:53 PM 69.1 °F 64.9 °F 87% 30.17 in 10.0 mi NE 5.8 mph - 0.01 in   Scattered Clouds
11:53 PM 71.1 °F 64.0 °F 78% 30.17 in 10.0 mi East 6.9 mph - N/A   Overcast